Theta_e
333 334 337 332 332 332 331 331 330 332 330 327 325 326 330 331 330 331 333 333 331 330 330 331 328 326 328 327 326 326 326 325 323 325 325 326 326 326 329 325 327 324 327 326 325 326 328 327 328 330 331 331 332 333 333 334 336 338 339 337 336 338 337 335 332 332 336 339 339 340 351 350 346 346 347 352 353 351 354 353 354 355 355 356 355
332 334 331 333 329 328 330 331 330 330 329 330 327 327 325 328 329 331 328 331 331 328 327 327 327 324 326 325 326 324 325 324 322 322 321 323 323 322 322 323 325 325 327 326 327 326 327 326 326 326 330 330 332 330 331 332 334 334 334 335 334 334 338 335 333 332 331 336 337 340 349 351 345 350 348 347 348 349 348 352 353 351 353 355 358
330 333 331 330 326 328 329 328 326 326 328 329 328 326 324 326 329 328 327 327 328 326 326 324 329 327 327 327 325 322 323 320 320 319 320 321 321 321 322 322 324 321 321 322 321 325 324 324 323 326 328 327 328 329 329 328 330 331 331 332 332 332 335 337 334 330 331 332 336 335 339 347 349 349 351 349 346 345 347 348 350 353 353 353 350
329 331 329 325 324 324 324 326 329 327 327 327 327 327 327 326 327 328 329 328 327 326 327 329 330 328 325 324 322 322 320 318 316 316 316 317 319 320 321 321 320 320 320 320 322 323 324 323 323 324 328 327 325 324 324 325 326 328 329 331 331 331 333 334 335 333 332 331 334 335 337 339 345 350 351 349 347 345 346 345 350 348 351 353 352
326 325 329 325 325 326 324 327 328 327 326 326 326 325 326 324 325 324 326 324 327 326 325 327 328 326 322 321 319 318 316 314 314 313 313 315 318 319 320 321 320 319 319 322 325 323 323 323 325 326 325 323 322 322 322 322 324 326 327 329 329 330 332 333 334 335 332 331 332 336 339 338 339 344 351 349 347 348 349 347 348 348 350 351 354
324 324 324 324 327 326 326 326 326 326 325 324 324 324 324 324 324 324 324 325 325 322 323 323 322 322 319 320 316 313 313 311 313 313 313 314 316 318 319 320 319 318 319 320 321 323 322 323 324 324 322 321 321 321 321 321 322 323 325 326 327 328 329 331 333 333 333 332 332 332 335 335 336 340 343 348 345 343 346 349 349 350 348 347 349
329 325 323 323 325 324 323 323 324 324 323 323 323 324 323 323 323 323 324 324 322 320 320 320 322 318 319 316 313 312 311 311 312 312 312 314 316 317 318 319 319 318 319 320 321 322 323 323 324 323 322 322 320 319 319 320 320 322 324 324 325 326 326 328 329 329 330 329 330 331 332 335 336 333 339 343 344 345 342 341 342 348 348 346 345
326 326 326 322 324 322 323 322 323 325 325 325 323 322 322 322 322 324 324 323 320 318 319 316 318 320 318 316 315 313 312 310 310 312 313 314 316 317 319 321 318 318 319 320 321 322 322 322 323 323 322 322 320 318 318 317 320 320 322 323 324 324 325 326 327 327 328 328 328 329 332 332 335 336 339 338 336 338 339 338 336 339 343 347 347
326 322 325 325 324 325 326 324 323 323 325 324 323 322 321 321 323 323 323 321 319 320 320 317 316 316 317 317 316 313 311 309 311 311 312 313 315 317 318 319 318 318 318 319 321 320 320 320 320 323 322 322 320 318 318 319 318 319 321 323 324 323 325 325 326 327 327 327 328 329 329 330 330 330 330 331 331 331 335 338 336 339 339 341 347
326 325 325 324 326 326 326 326 325 323 322 322 322 322 321 322 321 321 321 320 320 320 320 319 317 315 315 316 315 312 310 309 314 316 315 315 315 316 317 319 320 320 320 319 319 318 318 318 319 325 324 319 318 317 316 318 321 322 321 323 323 323 324 324 325 325 325 325 325 325 325 326 326 328 328 330 332 333 333 333 333 335 337 337 342
325 322 324 325 327 327 326 325 326 324 323 322 322 322 322 321 322 321 320 319 320 320 320 318 317 315 314 314 313 311 310 310 313 313 314 316 316 316 317 318 320 319 318 319 317 317 316 317 318 320 319 316 313 315 315 318 321 323 326 326 326 325 325 324 323 324 324 323 324 325 324 324 325 327 327 328 328 328 330 331 333 333 332 330 330
325 325 325 326 326 326 324 325 325 324 324 322 322 322 322 321 321 320 319 318 319 319 318 318 318 317 316 317 315 313 310 314 313 313 314 315 317 317 318 318 316 317 317 316 317 316 316 315 315 317 315 313 310 309 313 319 321 323 325 324 326 328 329 327 324 322 322 322 322 323 322 322 323 326 325 326 325 327 328 328 330 329 329 329 331
325 324 325 325 326 325 325 324 324 323 323 322 322 322 322 320 319 319 319 318 320 320 320 318 318 318 317 317 316 312 309 313 313 313 313 315 317 319 319 318 317 317 316 316 316 316 316 315 313 312 311 315 311 308 311 314 320 323 321 323 325 328 326 327 326 324 324 322 320 320 321 322 322 325 326 327 327 326 327 326 327 328 329 329 331
324 323 323 323 326 325 324 324 323 324 324 324 322 321 321 321 319 319 320 321 321 319 317 318 318 318 317 316 316 312 310 313 313 314 313 314 316 320 319 317 317 316 317 317 316 316 316 314 313 310 309 308 308 308 310 313 316 316 315 317 319 323 326 325 324 326 326 322 321 319 322 324 323 324 326 328 326 325 325 324 326 327 328 330 332
322 324 321 323 324 324 324 323 323 324 323 322 322 321 320 321 321 320 319 318 319 320 319 317 318 318 318 317 315 313 310 313 313 313 314 314 316 319 316 316 316 316 316 316 317 316 315 313 310 308 308 307 307 309 310 312 315 312 313 314 315 316 319 318 319 321 323 322 321 321 322 324 325 325 326 327 327 327 327 327 328 329 331 333 334
322 322 324 323 323 324 323 322 322 324 323 322 320 321 322 322 320 321 320 320 317 319 320 319 318 318 319 318 316 314 311 312 313 312 313 313 315 315 314 316 317 316 316 316 317 317 315 312 310 309 308 308 310 313 314 314 314 310 310 311 312 313 314 320 322 323 323 324 323 322 323 323 327 328 328 327 328 328 329 330 331 330 327 326 326
320 322 324 323 324 323 323 322 322 321 321 322 321 320 321 322 322 321 320 319 318 317 318 318 320 318 318 318 316 317 314 312 312 311 310 313 314 313 313 313 316 314 315 316 317 315 313 311 309 307 306 306 309 310 311 315 312 309 308 309 310 311 312 315 319 321 323 326 325 325 325 327 328 326 326 328 330 329 327 326 324 324 324 321 323
319 321 322 323 323 324 323 323 321 321 321 320 319 320 321 322 321 321 322 320 319 318 320 320 320 320 317 317 317 316 315 312 313 310 309 311 312 312 313 312 313 314 314 315 317 314 312 313 311 308 306 306 308 310 310 312 309 309 307 308 308 308 309 311 313 316 321 324 327 328 328 329 330 330 327 328 328 328 324 320 321 323 321 321 320
319 322 322 323 325 324 323 322 322 322 320 320 320 320 320 321 321 323 323 322 321 322 318 319 318 320 320 319 317 317 318 315 312 310 310 310 311 313 313 311 310 312 312 313 316 314 313 313 313 311 309 308 309 310 310 311 308 309 308 308 307 307 308 310 313 314 316 317 320 323 324 324 327 329 326 326 327 326 323 321 322 321 319 320 321
322 324 323 322 322 324 324 323 322 322 321 322 323 321 323 322 322 322 323 321 319 320 321 318 319 319 320 321 317 319 318 319 314 308 311 310 311 313 313 309 308 311 313 312 312 312 311 310 311 312 311 311 310 309 309 309 308 308 310 307 306 306 309 311 315 314 315 317 320 321 322 326 326 328 324 324 324 322 322 321 321 321 320 319 320
323 322 323 323 322 322 323 322 323 322 322 322 324 323 324 323 323 321 321 320 321 321 318 321 319 319 321 320 320 320 317 319 319 313 310 308 310 311 312 310 310 310 311 311 309 309 309 309 310 312 312 311 310 308 307 308 310 310 311 309 309 310 312 313 314 315 315 317 318 318 318 319 318 319 321 321 320 320 320 320 321 322 320 319 318
325 324 323 322 321 322 323 323 322 321 322 323 323 322 323 324 321 321 320 321 318 320 317 317 323 320 320 320 320 320 319 318 318 315 312 311 310 309 311 311 311 312 312 312 311 310 311 312 311 312 312 310 309 306 305 306 309 311 312 310 309 311 311 317 314 313 314 314 314 314 315 314 314 315 317 318 319 320 320 320 321 322 322 323 322
323 323 323 320 320 321 322 320 322 320 319 321 321 319 322 322 322 322 320 320 320 319 319 320 319 321 319 319 321 321 322 320 318 319 317 311 311 310 310 310 313 313 312 310 312 312 314 313 312 313 311 307 304 305 306 307 310 311 309 308 309 311 315 313 314 312 313 313 314 313 314 312 312 312 314 315 317 323 323 323 323 322 322 323 325
322 322 320 320 318 321 321 321 322 321 321 322 323 319 322 322 320 320 322 321 318 318 319 319 318 317 318 320 319 322 320 325 320 318 318 314 311 310 309 310 310 310 313 311 314 314 313 312 312 309 306 302 303 305 307 311 312 309 308 309 310 316 315 313 313 311 311 312 312 311 311 312 312 312 314 316 318 323 322 322 323 324 322 322 324
321 319 319 318 321 320 322 322 320 321 320 320 320 321 319 321 321 323 321 320 320 318 319 319 319 318 317 317 320 321 321 322 323 319 316 318 313 310 310 310 310 309 311 314 312 313 311 309 307 307 307 307 307 308 310 317 314 312 311 312 317 313 312 312 312 310 309 309 310 310 310 311 312 314 315 317 322 324 323 323 322 323 322 322 324
320 317 319 320 319 321 319 322 321 322 323 324 322 324 320 322 323 322 323 319 319 317 318 317 317 316 319 318 319 319 319 320 319 319 316 315 316 315 314 314 317 315 314 315 311 313 313 311 311 311 312 313 317 317 318 315 315 313 313 312 310 311 310 310 310 308 308 308 309 308 309 310 311 314 317 317 320 316 319 317 318 320 320 320 319
320 320 319 320 321 322 321 321 323 322 322 324 322 323 325 322 319 322 320 320 319 319 317 316 316 316 317 318 319 319 318 321 319 321 318 317 314 312 313 312 312 311 311 311 310 310 310 312 313 313 313 315 319 316 313 313 314 311 310 310 310 312 310 312 309 309 310 309 308 309 311 310 313 315 312 314 314 314 318 317 315 316 318 320 320
316 318 314 318 320 320 320 318 318 322 322 322 320 320 321 318 320 323 322 319 320 318 319 319 317 317 317 318 319 319 318 317 317 316 315 312 311 311 310 311 311 310 308 309 309 310 310 313 314 314 314 313 312 312 314 312 312 310 310 310 310 311 310 311 310 311 312 311 309 311 312 311 310 310 311 311 311 312 316 315 316 316 316 316 317
317 316 318 321 320 319 319 319 321 322 321 321 323 325 321 318 318 320 321 329 324 320 316 317 319 318 316 317 317 316 314 315 314 312 318 310 313 309 309 310 307 309 310 308 308 309 311 312 313 316 313 309 309 308 308 309 309 309 309 309 309 309 309 309 307 308 310 310 308 310 307 307 309 309 309 310 312 312 314 313 317 314 314 315 316
320 322 321 322 317 317 320 318 318 320 318 323 320 321 320 319 321 321 322 323 320 312 310 317 319 321 319 320 319 319 316 318 309 300 299 299 299 299 301 299 298 304 306 304 308 309 310 311 310 308 307 307 306 306 305 306 307 307 308 308 309 309 309 309 307 308 309 309 309 309 307 307 307 307 307 308 310 311 313 313 313 313 312 310 310
320 318 319 316 317 318 317 318 321 322 322 321 320 319 318 321 304 307 314 323 316 305 300 301 305 309 316 314 316 315 313 306 298 297 297 297 296 295 295 295 296 297 298 305 306 307 309 308 307 307 306 306 305 305 306 306 306 306 306 307 308 309 309 308 307 309 308 308 308 309 307 306 306 307 306 307 308 308 310 312 312 312 310 309 309
321 322 320 322 323 324 322 321 321 321 325 323 321 321 319 317 322 307 302 307 308 305 301 299 298 300 303 307 313 314 311 302 297 296 297 297 296 295 294 294 295 295 296 300 304 306 308 307 307 307 307 305 305 306 306 306 306 306 306 306 306 307 308 307 310 309 308 308 307 308 306 307 306 306 307 307 308 307 308 308 308 308 308 308 308
320 322 323 322 323 321 320 322 322 322 319 320 321 320 318 316 315 317 320 303 301 301 300 300 298 297 297 296 296 298 301 302 297 296 295 296 295 295 295 294 294 294 297 303 306 308 309 309 308 308 306 305 306 305 306 306 307 307 307 305 305 306 308 310 312 309 308 308 308 306 306 307 307 306 306 307 307 306 307 306 306 307 307 306 306
321 320 321 322 324 323 322 322 322 322 323 324 322 320 318 318 317 317 316 318 320 310 302 299 300 302 299 298 297 297 296 296 297 296 295 295 295 295 294 301 298 296 299 306 308 309 310 308 308 308 306 307 306 306 306 306 308 309 308 307 307 309 312 311 310 308 307 308 307 306 306 306 306 305 304 305 305 306 305 305 305 304 304 304 304
323 323 322 321 322 323 323 324 322 324 324 323 321 319 319 321 320 318 317 316 316 318 318 319 308 300 309 306 303 300 297 295 296 296 294 294 295 295 297 308 309 312 303 304 306 307 310 308 307 308 307 306 307 306 306 306 308 306 307 306 309 310 309 308 309 309 307 306 306 306 305 306 304 305 304 303 304 303 303 303 303 304 304 304 304
323 324 323 322 323 324 323 324 325 324 323 323 321 319 320 319 318 318 317 318 318 318 317 321 320 315 306 300 300 298 297 296 295 295 294 294 294 296 305 307 308 310 310 309 309 312 312 311 311 310 308 308 308 307 307 307 308 306 308 306 307 309 305 306 309 308 308 306 306 306 305 304 303 303 303 303 303 302 301 302 302 303 304 303 304
326 325 326 327 327 326 325 325 326 325 322 322 320 321 320 319 319 318 317 317 317 318 319 322 322 321 319 322 321 305 298 296 295 294 293 293 293 302 306 306 307 310 311 314 312 313 311 312 313 310 308 308 307 307 308 307 312 310 307 309 310 311 306 310 308 309 307 306 306 306 305 303 303 303 302 301 301 300 301 301 302 302 303 304 304
326 326 325 327 327 328 327 326 322 323 325 322 326 325 321 320 320 318 318 318 317 317 318 323 322 319 320 321 321 321 313 297 295 294 294 294 300 305 307 307 310 311 311 312 312 314 312 313 312 311 308 308 308 308 307 308 308 309 307 309 311 311 308 309 310 308 308 306 305 304 304 303 303 302 303 301 300 300 300 300 300 300 302 303 302
328 328 327 326 327 324 321 322 322 321 320 320 319 320 319 318 318 318 318 317 317 316 318 321 320 315 318 323 322 322 319 314 314 314 314 312 310 309 309 309 311 312 312 311 311 316 312 312 313 311 310 309 308 308 309 307 307 313 312 311 308 312 308 306 307 308 305 305 305 304 304 305 303 303 303 302 301 300 300 300 300 300 300 300 301
322 323 325 327 323 321 322 323 322 321 321 320 318 319 318 318 318 317 317 316 316 316 316 317 320 322 321 322 324 321 318 317 317 316 315 313 312 312 312 312 313 313 313 314 310 311 311 312 310 310 311 312 311 310 310 308 307 308 313 308 307 306 307 307 306 305 305 305 304 304 304 304 303 303 303 302 301 301 301 300 301 301 301 300 301
321 323 322 324 324 322 322 320 320 322 321 321 320 319 318 319 320 319 317 317 317 316 317 319 323 324 324 320 314 312 317 315 316 316 316 315 314 313 313 313 312 313 314 313 314 311 310 310 310 310 311 312 311 311 310 308 307 307 307 308 310 306 305 306 306 306 305 304 304 304 303 304 303 303 302 302 303 302 302 302 301 300 301 301 301
322 321 323 323 323 322 320 320 319 322 323 322 321 318 318 319 319 319 318 317 317 317 316 317 321 322 316 307 307 300 315 317 317 316 316 316 316 316 315 315 316 317 316 313 317 313 315 311 310 310 311 311 310 310 309 307 306 306 306 306 305 305 304 304 305 305 304 303 304 303 303 303 304 303 303 302 301 301 301 300 300 301 300 301 301
325 322 324 324 322 321 319 319 323 321 319 319 318 318 320 321 319 319 319 318 316 315 317 317 318 324 323 310 309 303 315 318 317 317 316 317 319 317 315 314 314 318 321 319 314 316 320 313 311 310 311 312 312 311 309 308 309 306 306 306 305 305 304 304 304 303 303 303 303 303 303 303 302 302 302 302 301 301 301 301 301 301 301 301 300
322 323 326 323 323 323 324 324 318 320 319 319 320 323 320 319 319 320 316 315 316 316 314 314 315 319 321 316 316 316 317 318 317 316 316 316 318 315 314 316 316 316 316 318 315 317 316 313 311 311 312 313 311 312 310 310 308 306 306 306 305 304 305 304 303 301 301 301 302 302 302 302 302 302 302 302 301 300 300 301 301 301 300 300 300
322 323 322 320 321 322 322 325 317 320 320 321 325 321 319 318 316 317 316 315 315 315 314 315 313 314 315 318 320 319 319 316 317 316 318 315 317 316 316 317 318 322 316 315 317 316 316 314 311 311 310 311 313 311 309 309 309 308 307 306 307 305 304 303 302 302 302 302 301 300 300 301 300 301 301 301 301 301 300 300 300 301 301 300 299
322 323 321 319 319 321 322 319 320 321 319 317 317 317 317 317 320 318 316 315 316 315 314 314 315 316 314 318 316 315 315 316 316 315 315 317 316 318 319 317 316 317 320 315 316 315 313 315 313 310 310 311 312 312 311 312 310 308 309 309 308 309 306 304 304 303 302 302 300 299 299 300 301 301 302 301 300 301 301 301 301 301 300 300 300
324 323 319 319 318 319 323 324 321 320 319 317 317 316 316 315 316 316 317 317 317 316 315 314 315 314 315 317 315 319 316 314 313 314 317 319 320 318 316 316 316 317 318 317 317 313 313 316 312 311 311 310 310 311 311 310 312 310 308 308 306 306 306 306 306 304 303 302 300 299 299 299 300 301 301 301 301 301 301 300 300 301 301 301 300
323 320 319 319 317 316 317 320 319 317 318 319 317 317 316 316 316 316 315 315 315 315 313 315 315 316 316 314 317 316 317 318 319 316 316 316 316 316 319 319 316 316 317 316 316 314 313 313 313 312 311 312 311 309 311 311 313 310 312 308 307 306 303 301 307 304 302 301 300 299 299 300 300 301 301 301 301 301 300 300 301 301 301 301 301
320 317 315 316 317 317 317 316 317 316 316 316 316 316 315 315 315 315 316 316 315 315 315 314 315 314 315 317 315 315 315 316 315 315 315 316 318 321 317 318 316 314 314 315 313 313 317 314 314 315 313 312 311 311 309 311 309 309 307 302 298 295 296 296 299 299 295 299 300 300 300 300 300 300 301 302 301 301 301 301 301 301 301 301 301
319 317 316 317 318 318 321 319 318 317 317 316 315 315 316 317 315 316 316 316 317 316 316 316 316 315 315 314 316 315 315 315 314 315 314 315 320 316 316 317 316 316 316 316 314 314 314 316 313 311 311 313 311 311 310 309 309 308 305 299 296 296 295 294 293 293 297 300 299 299 298 298 299 300 301 301 301 301 300 301 301 302 301 301 301
320 318 318 319 319 320 319 318 317 317 317 318 316 315 315 315 314 315 315 316 316 316 316 319 318 316 316 316 317 317 316 316 317 317 317 316 318 315 315 315 315 316 317 316 314 314 314 313 312 312 311 311 310 309 310 309 310 305 299 296 295 293 292 293 294 290 290 291 296 297 298 298 299 300 301 301 301 301 301 301 301 301 301 301 301
Wind_Speed
7 5 4 4 5 5 5 5 6 5 6 10 8 10 7 7 7 8 6 5 6 7 8 8 9 9 9 10 11 9 9 9 9 9 9 9 9 9 5 8 7 8 7 7 8 7 7 8 8 8 7 7 7 8 8 9 7 6 6 6 5 4 5 5 5 6 6 6 5 3 2 2 3 2 4 4 4 7 5 1 3 2 2 0 2
7 4 5 4 7 7 6 6 6 6 8 7 8 10 9 7 8 6 9 6 7 8 10 9 9 9 9 9 9 10 9 11 13 11 12 12 12 10 9 7 7 7 6 6 5 5 5 7 8 10 10 8 8 9 9 9 8 8 7 6 6 6 5 5 5 5 7 6 6 5 1 1 3 1 1 4 4 3 6 6 1 1 3 1 1
4 3 3 5 8 7 7 6 7 8 8 7 7 8 9 8 8 10 10 9 8 9 8 8 5 7 7 7 8 9 10 11 10 11 10 11 11 12 12 9 6 8 8 6 8 9 10 9 10 8 7 10 11 10 11 11 9 8 9 7 8 8 6 5 5 6 7 6 6 6 5 2 2 2 2 2 1 2 4 5 5 0 2 1 2
5 4 4 8 8 8 8 7 8 7 7 7 9 8 7 7 7 7 7 7 8 7 7 6 4 5 6 8 10 10 11 11 11 10 11 10 11 11 11 10 9 9 8 8 11 9 9 9 11 12 10 9 11 10 10 11 10 9 10 8 9 9 7 7 6 5 5 7 5 6 5 5 3 2 3 2 2 2 1 2 3 4 4 0 4
7 7 6 8 6 6 8 8 7 8 8 7 9 9 8 9 8 10 8 9 8 7 7 8 6 5 7 10 10 11 11 12 12 12 12 11 11 11 10 8 9 8 9 10 11 10 10 8 9 10 11 11 11 10 10 11 10 9 9 8 8 9 8 7 6 6 6 6 6 5 5 4 5 3 2 2 2 2 2 2 3 1 1 3 2
7 7 6 6 6 6 6 6 8 8 9 9 8 8 8 8 8 8 8 8 8 8 7 7 6 7 7 9 12 12 10 11 10 11 11 11 11 11 9 8 9 9 10 12 11 10 9 10 10 10 11 11 10 11 11 12 10 9 10 9 9 9 9 8 7 6 5 5 5 5 5 5 5 3 5 5 4 3 3 3 2 1 2 2 3
3 5 7 8 7 7 7 8 7 8 8 8 8 7 8 8 9 8 7 7 8 7 7 8 6 8 9 13 12 11 10 10 9 10 10 10 10 11 11 10 8 9 10 11 12 10 9 10 10 10 11 11 11 11 10 11 10 10 10 9 9 9 9 7 8 7 6 6 5 5 5 4 4 6 6 5 2 2 5 5 3 0 1 0 3
5 5 6 6 6 6 5 7 7 6 6 6 6 7 7 7 7 6 6 7 7 9 8 9 7 6 10 9 8 8 9 10 10 10 10 9 9 10 10 12 7 8 9 10 10 10 10 9 9 10 11 9 10 10 10 9 9 9 8 8 9 9 8 8 8 7 7 6 6 5 5 5 5 5 4 5 5 4 6 5 6 6 4 0 2
6 7 5 4 4 5 4 5 6 6 5 5 6 7 6 5 5 5 6 5 5 6 7 9 9 8 7 7 7 8 8 10 10 11 10 10 10 9 9 11 8 8 8 9 9 10 9 9 9 8 13 15 19 16 15 13 9 8 8 7 8 8 8 8 7 7 6 6 6 5 5 5 6 7 7 8 8 7 6 6 5 6 6 4 2
5 4 4 4 5 4 4 4 4 5 6 6 6 6 7 6 6 6 6 6 7 7 7 7 8 7 7 7 6 10 9 9 17 22 17 11 9 8 8 9 5 7 6 7 9 8 9 9 9 16 18 20 20 20 19 18 17 12 8 6 7 6 6 7 6 7 7 6 6 7 6 6 7 7 7 7 7 8 8 8 7 7 6 6 3
3 4 3 6 5 4 3 4 4 5 5 6 6 6 6 6 4 5 6 7 7 7 7 8 8 10 10 9 9 10 10 12 21 19 20 21 13 9 8 8 5 5 8 7 7 8 8 9 8 11 14 14 14 20 19 19 17 16 16 13 10 7 5 5 6 6 7 7 7 6 6 6 7 7 7 8 8 8 8 8 7 8 7 8 7
3 4 4 5 3 4 4 3 4 4 5 5 4 5 4 5 6 5 5 5 5 4 5 5 5 6 6 7 9 9 10 15 16 20 20 20 19 11 8 5 7 7 7 8 8 7 7 7 7 7 9 13 12 13 16 19 18 17 15 14 13 13 10 6 5 5 6 6 6 6 7 7 7 7 8 8 8 8 7 7 7 7 8 7 6
4 4 4 4 4 4 2 3 3 3 4 4 4 4 4 4 5 5 6 6 4 4 4 4 4 4 6 7 7 9 9 13 16 19 19 20 20 16 6 5 7 8 8 9 8 8 7 7 8 8 9 16 12 12 11 12 17 18 18 16 14 13 10 10 12 8 6 6 7 7 7 7 7 7 8 8 7 8 8 7 7 7 6 6 6
4 3 4 4 4 5 4 2 2 3 4 4 3 4 3 4 4 4 4 3 3 3 5 4 4 5 6 6 5 7 8 11 14 15 16 19 20 17 4 7 5 7 7 7 7 7 8 7 7 8 9 9 9 12 11 12 11 9 10 9 8 11 11 13 14 13 10 5 5 6 6 6 6 6 7 7 7 7 7 8 8 8 8 7 8
4 4 3 4 4 4 4 3 4 3 4 3 3 2 4 3 4 3 3 4 4 4 4 5 5 5 5 6 6 6 5 9 11 11 11 14 16 16 8 6 6 6 6 6 6 7 7 8 8 8 7 8 10 15 12 12 10 9 9 9 9 9 7 8 9 7 5 5 5 5 5 5 5 6 6 5 5 5 5 7 8 7 7 7 5
4 4 3 4 5 7 5 4 4 5 3 2 3 3 4 3 4 5 4 3 4 4 5 5 6 5 5 5 6 4 4 9 9 9 10 13 15 10 9 8 5 4 5 6 4 6 6 6 6 6 6 6 13 19 17 13 9 9 9 9 8 8 7 10 13 12 6 3 3 3 3 5 6 5 6 6 5 5 7 7 6 4 6 5 5
4 4 5 5 5 6 6 5 4 3 4 6 6 6 5 5 5 3 3 4 4 4 4 4 4 4 5 5 5 4 5 6 7 8 9 12 11 7 8 8 6 6 6 4 4 7 6 6 5 5 6 6 12 15 17 17 9 9 9 9 8 7 7 8 12 13 11 9 10 8 7 7 7 8 6 7 6 6 6 5 4 6 6 6 5
4 4 5 5 4 6 5 4 4 4 5 4 4 4 3 3 3 3 2 3 4 4 4 3 3 3 4 4 5 5 4 4 6 7 8 10 11 8 7 8 8 7 6 6 4 7 8 12 9 5 7 7 12 13 16 14 9 9 9 9 9 8 8 9 8 7 10 10 7 4 6 7 7 4 3 5 8 8 7 7 7 6 5 6 6
4 6 5 4 4 3 3 3 4 4 4 3 4 4 3 3 3 3 4 2 3 3 4 3 4 3 3 3 8 6 3 3 5 4 6 8 8 6 6 7 6 7 6 5 4 6 4 5 12 12 9 8 8 10 13 13 8 9 8 7 7 8 8 10 9 7 7 6 5 4 3 6 3 2 3 9 11 12 7 7 6 6 6 6 6
4 5 3 3 4 6 6 7 4 3 4 3 3 1 2 3 4 3 3 3 4 2 3 3 2 3 3 3 3 3 3 2 3 0 3 5 8 7 6 7 7 7 7 5 5 5 6 6 8 10 7 5 7 9 10 12 8 8 8 5 7 8 8 9 9 8 8 7 5 5 6 3 3 2 4 4 6 8 8 7 6 5 6 6 6
4 3 3 4 5 5 5 4 4 5 5 4 4 4 3 3 2 3 2 2 1 1 1 2 2 2 3 3 3 3 2 2 3 2 1 2 5 7 5 6 6 6 6 7 6 6 6 6 7 11 10 9 8 8 10 11 11 8 8 6 6 10 11 7 8 13 8 7 5 5 5 5 6 5 4 3 5 5 5 6 6 5 5 6 6
2 3 4 4 4 4 4 5 5 4 4 5 3 3 2 1 2 2 2 2 1 2 2 1 1 3 3 4 4 3 4 2 1 5 4 3 3 6 5 5 6 6 5 5 4 4 3 4 5 10 13 14 13 11 11 11 12 8 9 11 13 11 10 7 5 6 7 7 6 6 6 5 5 5 5 4 3 3 3 3 4 5 5 4 5
3 4 5 4 3 3 4 3 4 4 2 1 2 2 2 3 3 3 2 2 4 3 3 2 3 3 3 2 3 2 2 2 4 1 7 5 5 5 7 6 9 7 6 6 4 3 3 3 6 13 15 16 16 14 12 12 10 7 11 15 14 13 11 5 6 6 6 6 6 6 6 5 5 5 5 5 3 2 1 0 2 4 5 5 5
3 4 3 2 1 2 2 3 3 2 3 3 2 2 3 3 2 3 2 2 3 3 2 4 1 2 3 3 2 3 3 1 1 4 0 7 6 8 8 8 8 6 6 6 5 4 4 4 6 12 15 15 16 16 15 10 7 11 10 13 15 9 4 5 4 6 6 6 6 6 6 5 5 4 5 5 5 1 2 0 2 2 4 5 6
5 3 3 1 1 3 3 1 1 3 1 1 2 2 3 3 3 1 3 2 3 3 4 2 2 1 1 3 4 4 3 3 2 0 6 2 8 8 8 8 10 11 7 5 5 4 3 7 11 12 14 16 16 16 14 11 11 7 7 5 12 3 6 4 5 5 6 6 6 6 5 6 6 5 5 5 3 3 1 0 1 2 3 4 5
3 3 3 2 2 2 2 3 3 3 2 3 3 2 3 1 1 2 1 2 2 3 3 3 3 3 1 2 3 4 3 2 2 2 3 7 5 3 6 9 11 11 12 7 8 9 8 12 14 14 13 13 8 4 4 8 5 11 12 13 8 5 5 5 5 6 6 6 7 6 6 5 6 5 6 7 3 5 3 5 5 2 2 4 5
1 4 1 1 3 2 3 2 1 3 4 3 3 4 3 4 2 2 3 1 3 3 3 4 4 4 3 2 3 3 4 1 1 2 3 4 4 6 6 6 9 10 7 7 9 7 9 10 10 12 14 15 13 4 10 10 9 8 6 4 6 5 6 5 6 6 6 6 6 6 5 6 5 5 6 6 6 7 3 4 5 4 4 2 3
5 3 4 3 4 2 1 5 3 0 2 4 4 3 2 4 2 0 0 3 3 3 4 4 4 5 4 3 3 4 4 3 3 3 3 4 3 4 5 5 5 5 6 6 7 7 8 11 12 10 3 6 7 5 4 4 6 7 6 4 5 7 8 10 9 4 4 5 5 6 4 6 6 6 6 5 6 7 4 6 5 4 5 5 2
0 3 1 3 4 2 2 2 2 1 1 2 3 3 3 3 3 3 3 0 1 3 3 5 5 4 4 5 5 5 5 3 3 2 3 3 1 3 4 4 4 5 6 8 8 7 7 8 9 4 4 5 5 6 6 5 5 4 7 5 5 5 5 5 6 6 5 5 6 5 6 6 6 6 6 5 5 7 5 7 5 6 7 6 4
4 3 4 2 3 4 2 2 2 3 3 3 3 4 5 4 3 3 5 4 6 6 5 5 5 4 4 4 4 4 4 2 6 7 6 4 3 4 5 6 7 6 8 10 7 7 8 7 4 6 7 6 6 6 6 6 5 3 4 5 5 5 5 5 5 5 5 6 6 5 6 6 6 6 6 6 6 6 5 6 5 6 7 7 6
5 5 3 3 5 3 4 4 3 0 2 4 4 5 3 5 9 9 8 7 5 10 10 12 12 11 6 6 5 4 3 6 7 7 6 5 4 6 7 8 9 8 7 6 7 7 8 5 6 6 6 5 6 5 6 5 6 6 5 5 5 5 5 6 6 5 6 6 6 5 6 6 6 6 6 6 6 6 5 5 5 5 6 6 5
4 5 6 3 4 2 2 3 5 5 3 2 3 4 4 6 4 9 12 11 12 12 12 12 13 12 9 7 5 6 3 5 6 6 6 5 7 8 8 8 10 9 4 1 4 7 7 4 4 4 4 5 5 5 5 5 5 5 4 5 6 5 5 6 5 5 5 5 5 5 6 6 5 6 6 6 6 6 5 6 6 6 6 6 6
5 5 4 6 4 4 4 4 4 5 6 4 4 3 5 4 6 4 7 13 15 14 13 12 7 13 14 13 10 9 11 3 4 5 5 6 7 10 8 8 11 11 4 4 5 7 5 3 4 4 4 4 4 4 5 5 4 5 4 5 5 6 5 4 3 5 5 6 5 6 6 6 6 6 6 6 6 6 6 6 6 6 6 6 6
4 4 4 3 4 4 4 4 4 5 5 4 4 5 5 6 5 5 6 4 6 10 12 5 5 14 13 14 15 15 12 10 8 6 5 6 7 10 7 8 12 14 11 7 6 6 5 3 4 4 4 4 4 5 4 5 4 4 3 4 3 3 3 4 3 5 6 6 5 6 6 6 6 6 6 5 6 6 6 6 6 6 5 6 6
3 5 8 4 3 4 4 4 5 4 4 5 5 6 6 6 5 6 5 6 6 5 2 4 8 10 9 9 12 13 10 8 10 10 8 6 7 7 8 9 10 6 4 6 7 6 3 4 4 3 3 4 4 4 4 6 3 5 4 4 3 2 4 4 3 4 5 5 5 6 6 6 6 6 6 6 6 6 7 6 6 6 5 6 6
4 4 4 5 4 4 4 4 5 5 5 5 5 6 6 5 6 5 5 6 5 5 3 4 3 6 11 12 13 12 9 7 9 8 7 7 4 3 4 6 8 7 3 6 6 5 2 3 2 3 3 3 3 4 4 7 4 4 4 5 5 3 4 5 4 4 5 5 5 6 6 6 6 6 6 6 8 8 6 6 6 6 7 6 6
3 4 4 3 3 4 4 4 4 5 5 5 4 5 5 6 6 5 5 5 6 4 3 4 3 3 4 4 7 10 7 5 6 5 4 4 2 2 4 6 7 9 8 2 4 2 2 3 2 2 4 3 3 3 4 6 1 2 1 3 4 2 4 3 5 4 5 5 5 4 5 6 6 6 6 6 6 6 6 7 7 7 7 8 8
3 4 5 4 4 4 4 3 4 4 4 4 4 4 4 4 4 5 5 4 4 5 4 3 3 2 2 4 4 3 6 6 6 3 3 4 3 4 5 6 7 8 8 6 3 3 4 3 3 3 3 3 3 4 4 5 5 3 4 3 3 4 6 5 7 5 4 4 5 5 5 4 4 5 4 4 5 5 5 6 6 6 6 8 6
3 8 11 9 4 5 6 4 3 3 4 4 4 4 4 4 5 5 5 5 4 5 4 4 2 5 7 3 1 1 3 2 2 3 4 5 5 5 6 7 6 6 5 6 5 1 3 3 3 4 3 3 3 5 3 5 7 2 1 2 3 2 4 4 4 4 4 5 4 4 3 3 4 5 4 3 4 4 5 5 5 5 6 6 6
4 3 1 8 2 4 5 4 2 2 3 4 4 4 4 4 4 4 4 5 6 5 6 5 5 5 2 4 3 3 4 5 5 6 4 5 6 6 6 5 5 7 5 3 5 4 4 4 5 4 3 1 2 3 3 4 6 5 0 4 4 4 4 4 4 4 4 4 4 4 5 3 4 4 4 5 6 5 5 6 6 6 6 6 6
4 2 4 2 2 5 5 2 2 3 3 3 3 3 3 3 3 3 3 4 4 5 5 4 3 2 3 3 2 1 4 5 3 2 6 8 7 7 6 6 7 5 2 3 3 5 5 4 5 4 2 2 2 3 2 4 6 6 4 3 2 4 4 4 4 4 4 4 5 4 5 5 4 4 3 4 6 6 5 5 5 6 6 6 5
4 4 4 3 3 5 6 2 3 3 3 4 4 3 3 3 4 3 2 2 2 2 4 4 1 2 2 4 5 5 3 4 3 3 3 2 2 4 4 4 4 3 2 3 2 4 1 5 3 4 2 1 2 3 3 3 4 7 4 3 5 4 4 4 4 4 5 5 5 5 5 6 7 6 5 6 4 4 5 5 5 4 5 6 7
4 4 4 2 3 6 3 3 3 3 4 4 4 5 5 3 3 2 3 2 1 3 2 2 2 3 2 6 3 2 3 5 4 2 2 2 2 2 3 3 3 2 1 1 3 4 1 4 4 4 3 2 1 2 2 2 3 5 6 4 2 3 3 4 5 5 5 5 5 6 6 6 6 6 5 5 5 4 4 5 4 4 5 6 7
5 3 3 3 4 5 1 2 1 3 4 6 8 4 3 4 3 3 4 5 5 4 6 2 3 2 4 4 4 3 4 6 4 3 3 3 1 2 3 2 2 3 3 1 3 3 2 2 3 4 4 3 1 3 2 2 3 4 8 3 4 1 1 3 4 5 5 5 6 6 6 5 6 5 5 5 5 5 5 6 6 5 6 6 6
4 4 4 5 5 3 2 2 2 4 6 3 1 3 3 4 3 3 3 3 4 4 6 3 1 2 2 4 6 6 5 3 3 3 2 3 2 2 2 1 2 2 1 2 2 3 2 2 3 2 3 2 2 3 3 4 4 5 5 7 2 4 4 4 4 4 4 5 6 6 6 6 6 5 5 5 5 5 6 5 6 6 6 5 5
4 4 5 5 3 2 2 1 2 4 5 3 3 2 3 3 3 2 3 3 3 3 5 5 4 1 1 1 2 1 1 2 2 2 2 2 2 2 1 1 2 1 1 1 2 3 3 2 3 3 3 3 2 1 2 1 2 5 4 3 0 1 6 6 3 2 3 4 4 5 6 6 5 5 6 5 5 5 4 5 4 5 6 6 5
4 4 6 6 2 2 3 2 3 2 4 4 4 4 4 5 6 4 3 3 2 1 3 4 5 4 3 3 3 1 2 2 1 2 2 2 2 3 4 2 2 1 1 2 2 4 4 1 2 3 2 3 2 3 2 1 2 3 4 4 6 5 4 3 2 2 1 1 2 3 4 6 7 5 5 5 5 5 5 5 5 5 5 6 6
3 6 3 3 2 2 3 3 4 5 3 4 5 5 5 4 5 6 7 6 4 4 4 4 5 4 2 2 2 2 2 1 2 3 2 2 1 0 1 2 2 1 1 1 1 1 2 3 4 3 3 3 2 1 0 1 1 3 1 4 3 4 4 1 1 3 2 1 2 3 4 5 6 6 5 4 5 5 6 5 6 6 6 6 6
7 2 3 5 2 4 3 3 4 5 5 5 6 6 6 5 5 4 4 4 4 5 5 6 6 6 5 4 5 6 4 2 4 5 3 1 1 2 3 2 2 0 1 2 1 0 1 2 1 1 2 4 4 3 1 2 2 2 4 4 5 8 9 8 5 3 0 2 2 2 3 4 5 6 5 5 5 5 5 5 5 5 6 6 6
1 3 4 4 2 3 3 3 4 5 5 6 5 6 6 4 4 4 4 4 3 3 3 3 3 5 5 5 4 4 4 2 2 3 3 3 2 3 2 2 3 3 2 2 1 1 1 1 4 4 3 2 1 1 1 2 4 1 6 6 8 8 8 8 7 3 1 1 1 1 2 3 5 6 5 4 4 5 5 5 5 6 5 5 5
0 3 3 2 3 2 3 4 4 5 5 4 6 7 7 5 4 4 4 4 4 4 3 3 3 3 4 4 3 2 3 4 2 2 2 2 2 2 0 1 1 3 3 3 3 1 2 2 3 3 4 3 2 3 2 1 4 6 8 12 10 9 8 6 4 5 5 3 2 2 2 3 5 6 5 4 4 4 5 5 5 4 4 5 5
Wind_Direction
49 25 18 51 22 40 50 43 2 351 14 12 7 351 35 19 19 22 22 18 3 26 21 28 23 2 14 23 26 24 16 6 1 356 355 2 346 330 34 26 357 352 340 6 17 18 4 353 355 349 355 347 11 7 1 7 2 356 357 346 359 19 22 10 352 340 342 346 344 12 91 29 13 6 344 3 2 353 346 74 181 206 186 82 166
63 11 8 348 53 29 18 37 357 18 19 31 12 358 14 19 19 18 19 10 14 24 26 24 20 4 12 31 29 28 17 22 11 6 1 356 348 348 351 25 353 351 334 2 10 27 4 1 357 359 359 347 25 15 6 3 359 0 2 349 354 355 20 5 354 345 337 341 341 346 62 84 17 271 355 2 25 343 334 332 106 6 316 305 283
52 50 16 18 31 359 49 31 13 21 21 18 17 6 9 6 23 23 20 7 15 23 24 17 9 17 3 35 43 29 29 25 13 5 357 354 345 346 339 352 6 348 350 350 10 17 15 10 1 356 2 1 15 16 11 3 357 2 356 355 354 353 0 359 350 352 341 336 337 344 351 316 33 359 65 61 20 346 325 343 5 53 248 319 265
39 22 15 34 28 23 15 27 34 22 25 21 16 14 8 8 18 29 25 13 13 29 9 353 352 45 14 26 39 27 34 25 13 3 356 348 347 338 342 351 355 352 337 6 37 23 19 7 358 4 10 14 25 18 10 1 356 355 350 360 355 353 348 344 356 345 345 327 347 336 333 325 10 44 90 94 359 339 311 311 350 4 335 225 223
21 7 23 59 26 44 36 37 32 29 20 26 17 13 17 18 11 20 15 17 11 16 8 351 334 53 22 41 43 38 32 20 8 358 353 350 342 338 337 344 346 350 341 37 29 26 10 11 15 16 16 20 19 16 1 2 354 350 349 358 353 350 341 339 344 345 338 335 328 324 322 353 352 341 83 64 16 314 328 324 313 277 22 349 292
27 12 3 48 32 46 56 50 40 30 25 22 16 14 15 20 18 22 13 14 17 14 10 333 345 40 21 49 50 43 34 19 6 356 350 348 342 333 332 338 353 343 11 18 27 23 7 10 20 20 24 18 17 12 4 358 355 347 350 352 350 344 338 337 340 338 333 327 321 329 356 354 339 331 29 29 11 360 354 321 291 357 40 357 309
19 40 346 47 37 30 29 46 45 36 32 30 16 12 23 30 20 23 17 21 14 11 2 339 14 18 37 60 54 45 34 19 6 359 351 346 342 329 339 344 359 351 18 23 17 15 8 17 23 27 28 24 20 13 3 357 349 346 350 348 346 340 337 333 335 336 336 332 333 350 340 337 332 14 10 16 27 5 341 332 331 72 149 204 308
332 59 47 49 41 23 33 45 41 43 42 33 22 17 25 36 30 23 29 23 20 17 13 354 15 20 64 69 63 50 34 20 8 5 353 350 345 337 341 325 357 11 19 22 15 17 7 19 28 31 27 25 26 12 7 355 347 343 348 340 339 336 334 334 333 334 332 336 341 342 334 338 8 21 12 16 21 11 350 345 338 339 358 164 212
23 25 27 27 59 37 40 30 46 43 45 39 29 19 22 34 48 31 32 31 25 28 14 9 10 11 37 70 78 58 35 20 12 8 0 355 349 338 335 329 356 18 21 21 21 25 13 11 12 24 30 23 18 15 7 358 351 343 335 331 330 332 330 332 328 331 341 337 333 346 343 358 13 11 10 17 15 1 325 337 332 337 328 332 317
26 35 19 29 38 35 26 56 57 50 50 44 39 27 10 16 39 28 25 20 19 36 26 15 357 13 5 12 37 64 34 23 16 8 6 2 349 340 329 320 357 30 25 38 28 21 17 3 2 8 28 18 12 6 360 354 349 344 331 321 321 312 331 326 337 347 344 344 349 346 356 7 11 8 9 11 5 351 351 345 339 340 336 349 331
45 25 23 53 41 17 15 43 50 47 53 56 50 33 13 359 25 54 41 29 17 23 27 23 14 11 8 6 29 58 34 23 18 6 4 359 357 338 329 314 30 26 25 41 34 27 15 10 358 13 28 20 7 0 354 348 347 344 340 334 329 322 322 341 353 356 354 352 349 354 360 12 8 6 10 1 5 349 350 342 343 352 357 349 344
38 41 17 81 53 47 12 34 51 46 49 62 51 51 38 7 4 30 52 47 26 18 44 26 30 9 354 13 51 45 39 19 16 7 2 357 353 343 323 328 24 28 24 25 37 29 20 17 4 23 26 19 7 356 350 343 338 337 341 347 341 344 9 11 2 1 2 348 354 0 5 10 350 7 5 3 357 340 346 339 348 347 345 339 334
37 31 14 11 44 80 5 21 49 59 70 54 31 56 32 26 24 10 43 50 19 358 45 34 33 10 14 7 41 51 41 19 22 5 3 355 347 343 322 23 40 35 27 26 32 31 18 19 14 19 24 15 6 354 348 339 336 349 1 351 343 350 22 12 11 9 13 8 3 356 6 356 351 4 2 359 345 336 341 336 342 332 328 320 322
28 17 34 15 13 85 46 4 20 54 50 61 50 51 17 49 26 29 29 35 23 358 34 25 38 40 17 14 48 67 43 28 31 5 359 356 347 342 338 18 30 37 36 37 37 33 20 13 18 12 24 13 4 359 349 342 331 1 349 340 339 355 29 16 16 10 17 19 355 351 350 350 351 349 347 353 347 341 337 329 325 322 322 317 307
49 343 35 41 6 38 69 38 340 53 62 50 61 42 37 30 19 45 21 24 359 347 44 17 43 43 23 19 8 76 46 39 39 17 355 348 345 339 360 5 30 42 35 42 46 44 28 25 23 27 27 12 3 2 354 345 345 7 349 347 353 348 21 11 3 355 5 8 351 343 345 342 346 335 333 339 333 321 312 300 298 300 301 293 282
47 350 29 43 41 43 19 31 5 348 30 39 21 22 49 29 21 13 22 40 4 3 19 29 27 19 30 17 9 54 69 46 41 27 0 349 348 345 356 352 29 34 33 38 26 57 47 34 27 25 25 6 7 355 352 350 350 9 351 353 352 356 7 5 349 346 341 320 326 326 327 326 315 308 306 306 307 304 312 305 291 332 323 326 327
40 10 11 12 45 48 27 14 26 11 5 2 24 25 17 8 29 360 8 13 13 24 9 20 30 20 14 12 15 354 76 48 44 31 15 356 349 355 360 343 2 18 27 43 40 71 65 64 38 20 15 11 4 348 341 352 347 7 354 355 354 355 1 358 340 343 344 303 283 273 267 270 280 287 313 314 315 335 314 305 359 356 331 336 342
24 19 25 8 10 53 35 24 19 30 26 19 18 24 29 17 28 326 4 12 6 13 14 20 10 28 19 17 352 13 67 58 53 36 24 3 347 353 357 353 0 7 12 358 58 100 85 69 54 36 22 4 357 344 339 349 344 352 360 353 355 356 356 349 332 335 338 328 342 312 277 256 262 313 7 2 28 26 8 4 359 353 347 342 337
14 42 36 11 7 48 57 67 56 38 55 42 34 44 20 29 355 349 343 31 48 3 4 21 350 11 30 41 355 28 11 104 77 49 20 6 355 341 2 358 356 356 355 357 10 46 45 12 15 33 20 358 341 338 331 341 339 330 347 350 350 348 345 337 317 337 341 335 337 341 338 345 342 350 29 31 30 32 20 1 359 0 356 340 331
46 79 56 358 19 28 17 12 16 49 52 42 100 91 127 56 16 1 356 357 49 347 9 352 336 6 13 358 37 28 6 12 111 87 53 11 345 343 1 6 355 351 340 359 352 53 17 12 350 36 20 353 334 328 326 323 328 320 319 345 342 334 329 323 328 356 334 326 323 351 334 314 334 29 73 36 35 28 15 355 357 0 351 334 322
41 53 40 29 41 14 11 358 18 33 41 23 1 12 35 69 60 26 360 341 50 285 320 276 20 23 10 4 39 14 8 359 137 177 132 34 333 345 349 10 355 344 348 1 359 19 25 7 328 352 349 338 332 319 317 312 312 316 303 315 324 315 315 310 350 358 331 336 354 0 343 12 358 15 50 48 39 29 8 350 350 352 340 328 324
40 74 67 46 36 11 36 0 334 38 41 19 353 1 13 21 23 102 338 323 18 305 334 327 82 36 22 22 346 15 340 6 229 180 186 176 292 323 346 342 343 325 333 340 347 24 22 10 327 335 333 327 322 321 306 302 301 304 296 290 301 311 317 322 6 350 341 342 352 0 344 15 1 8 7 13 33 26 2 0 341 330 316 298 303
50 74 76 56 18 38 33 336 323 18 30 123 357 18 332 354 17 10 5 346 329 342 326 327 59 301 82 315 357 343 4 34 332 334 181 190 213 258 276 292 319 323 322 325 334 356 22 0 334 324 320 311 308 308 303 291 297 280 285 299 298 304 305 10 6 358 344 344 348 359 344 6 358 6 358 347 348 70 335 325 299 306 305 310 304
65 63 75 69 42 4 66 324 23 342 12 348 74 331 318 67 9 356 323 329 329 304 13 321 28 319 8 334 334 336 349 341 179 308 332 192 217 228 250 264 274 279 301 304 333 14 7 345 313 306 298 299 296 294 297 286 268 276 290 293 301 305 23 359 13 5 353 344 351 357 349 359 347 355 344 322 318 140 220 11 313 312 316 313 306
75 75 91 85 12 56 332 236 64 332 9 319 289 313 332 45 344 83 308 332 306 325 323 273 343 346 353 338 343 341 343 316 25 62 7 62 210 235 251 255 266 275 281 304 3 347 328 289 287 285 289 292 292 288 286 283 255 263 249 271 304 63 22 356 11 16 349 352 350 1 346 358 342 341 325 308 326 337 338 84 315 331 321 297 303
101 81 109 107 343 84 242 350 78 307 323 282 284 194 239 136 202 287 325 334 314 318 298 315 316 323 8 314 314 317 304 327 11 22 24 10 10 298 266 259 284 309 314 309 1 358 356 313 286 279 275 282 287 296 300 10 4 29 18 14 323 44 23 357 35 11 358 347 357 356 346 350 337 326 332 321 4 343 6 353 326 316 315 317 323
13 127 110 173 143 225 158 303 263 185 267 245 247 277 243 160 182 308 314 347 313 308 308 331 330 329 348 267 265 284 311 298 83 50 46 13 17 352 359 358 349 351 339 354 358 351 317 301 299 293 286 279 286 340 36 20 4 1 51 358 320 27 15 26 40 8 350 345 354 341 341 348 321 344 336 339 10 335 12 344 321 323 321 307 299
13 26 33 331 130 282 36 184 242 292 313 315 329 290 325 334 328 15 255 294 316 319 318 320 317 315 320 333 348 340 320 9 88 39 41 31 360 344 348 349 353 356 340 351 339 318 305 298 297 290 298 34 359 14 50 43 23 357 346 4 330 40 11 20 19 354 340 343 347 317 358 346 345 354 341 353 4 325 340 339 316 331 329 314 299
79 353 96 278 113 178 263 344 295 70 59 296 314 358 353 291 299 316 278 177 258 304 315 290 296 302 325 336 331 319 335 2 87 75 97 104 25 336 336 336 338 322 331 344 329 308 293 290 273 283 38 28 14 13 356 16 43 357 324 9 352 32 8 30 11 348 350 359 343 341 15 352 353 356 342 348 349 324 346 339 336 358 332 322 337
338 298 1 353 70 336 42 289 327 18 326 322 298 266 203 214 212 238 285 254 203 199 213 240 250 280 296 290 292 316 338 35 137 134 144 154 223 241 264 288 296 297 315 315 305 295 292 282 323 15 23 1 14 18 360 351 356 4 333 357 358 31 10 23 0 354 0 358 335 357 15 355 357 358 347 348 340 331 349 335 356 355 343 347 356
327 21 322 323 81 4 329 332 12 164 280 292 309 320 310 221 220 220 228 253 227 232 233 237 255 263 260 276 286 330 9 136 155 167 164 190 215 247 261 273 291 296 328 337 323 309 301 338 7 19 13 353 12 4 3 354 355 337 358 360 4 17 12 16 358 6 0 356 337 9 19 353 0 354 350 347 347 342 344 353 353 358 357 342 359
262 261 266 346 60 15 286 301 295 282 201 215 270 280 267 281 256 227 229 232 246 242 235 242 246 251 259 261 283 286 281 156 169 171 187 203 236 252 258 265 272 279 287 261 293 294 297 342 10 43 9 356 7 4 359 357 346 319 346 22 358 3 17 14 359 15 350 347 337 17 13 351 6 356 347 344 352 343 347 0 3 7 2 350 3
292 317 356 28 3 343 327 312 305 301 311 301 269 265 281 286 288 285 233 234 238 240 246 252 319 344 331 312 280 255 267 295 158 191 198 225 259 270 273 273 269 273 289 270 260 269 283 343 345 52 31 0 357 1 349 340 314 321 31 27 355 348 27 359 8 8 352 342 352 22 5 347 12 357 350 349 353 341 8 9 6 7 357 356 355
312 302 318 321 328 298 288 290 289 291 298 305 294 289 290 289 290 284 288 281 241 253 253 227 201 246 255 259 267 264 249 243 244 226 224 242 260 272 308 295 276 250 226 251 259 266 298 18 353 43 40 9 358 351 345 324 321 344 30 20 356 326 29 345 6 18 358 347 6 25 355 360 11 354 355 352 353 357 10 7 357 4 358 360 351
273 293 301 289 248 276 283 284 285 291 298 293 292 288 290 290 288 287 292 291 297 286 131 158 216 206 223 254 262 264 258 227 223 220 225 238 258 301 328 301 300 295 178 219 233 250 278 38 355 42 47 12 8 340 332 307 344 359 4 351 336 341 40 343 20 31 5 348 13 20 357 10 9 358 354 348 355 14 11 6 350 351 353 357 342
278 281 284 300 302 300 295 290 293 292 289 285 288 294 296 300 302 309 306 300 298 322 340 174 205 235 228 231 244 259 260 211 206 208 217 235 274 3 301 290 292 295 236 196 225 216 88 80 11 44 59 18 359 339 323 305 33 344 25 338 329 29 20 326 41 34 14 359 13 17 2 17 8 2 350 355 13 13 360 358 346 354 358 348 331
273 269 295 282 279 283 291 295 289 277 283 287 288 291 292 298 300 303 300 299 301 293 252 178 208 216 219 243 244 244 229 166 165 184 218 238 196 209 257 271 282 288 299 285 171 164 132 107 112 61 57 24 346 349 313 298 315 244 56 291 293 24 14 324 58 14 22 356 22 17 14 17 8 358 358 7 18 7 5 1 355 357 358 347 355
278 295 288 291 303 296 293 278 289 304 298 292 279 265 280 292 298 306 301 293 297 300 310 223 238 314 255 247 267 287 97 111 121 145 171 171 188 218 238 259 265 277 289 297 356 26 85 102 79 86 81 50 321 300 285 294 305 327 28 306 10 5 348 344 55 32 19 6 13 18 12 15 11 353 353 10 12 11 8 3 357 354 346 348 1
260 251 240 243 253 273 284 299 302 303 304 301 321 321 324 321 323 319 318 317 311 306 303 269 172 169 250 247 212 205 151 167 227 241 199 194 197 209 228 233 249 267 283 292 302 149 95 77 87 89 94 72 294 272 309 327 300 268 286 295 72 356 8 343 34 47 18 6 20 8 345 11 25 336 334 358 9 10 5 356 353 350 354 357 359
279 296 183 175 225 291 294 280 291 340 352 338 325 322 317 320 313 314 319 326 323 324 319 314 316 51 23 251 211 198 217 223 221 233 219 206 202 204 216 239 257 255 264 299 313 277 146 112 101 95 99 198 265 321 327 313 312 306 292 4 7 23 11 354 28 35 21 5 356 342 331 13 42 335 328 15 9 359 355 358 359 2 355 354 351
301 341 352 347 308 273 275 293 356 4 333 308 296 306 318 310 310 320 315 325 334 332 328 327 340 108 215 219 218 242 279 296 317 204 190 199 207 205 209 217 230 249 298 302 324 1 81 103 95 91 79 330 312 321 330 309 324 318 12 311 19 15 14 350 16 28 16 356 347 359 338 347 348 330 343 38 8 359 356 355 356 355 354 341 340
334 333 313 316 322 283 266 330 24 345 294 282 290 303 289 267 265 253 266 292 325 323 325 333 341 161 148 175 206 202 259 288 301 309 319 265 228 159 183 215 243 262 273 315 313 263 103 108 132 114 113 6 337 316 332 337 317 316 311 30 23 3 13 348 10 19 13 356 349 355 339 349 341 339 3 26 13 353 353 353 355 348 348 340 348
315 297 298 320 310 283 330 20 351 348 322 304 294 277 266 286 310 325 340 355 328 314 320 322 359 138 188 199 186 143 255 278 303 281 297 324 296 153 169 209 238 225 146 235 290 301 202 144 119 131 108 81 300 281 268 305 300 301 327 74 66 30 349 351 17 13 6 356 347 345 354 357 345 332 353 27 9 348 340 337 340 354 355 349 358
295 316 319 292 272 269 325 110 2 305 284 273 268 277 19 1 354 8 16 344 334 340 324 24 47 137 186 167 169 214 232 251 280 314 283 252 181 239 243 224 224 219 185 189 274 262 252 111 104 102 115 106 282 295 337 349 351 345 301 359 82 60 317 45 37 23 0 351 344 348 351 349 330 330 353 10 358 345 344 342 349 356 357 358 351
312 312 323 310 282 276 43 19 352 272 259 258 63 7 336 321 336 332 353 337 331 342 330 334 353 66 10 153 184 204 232 285 315 284 273 282 228 204 210 211 219 202 200 243 273 299 296 148 118 100 113 134 80 15 5 355 349 307 305 309 351 49 75 76 72 29 1 352 354 351 344 341 327 333 350 360 351 345 345 342 340 348 350 354 340
323 322 294 276 281 347 295 17 294 268 296 349 354 347 315 299 300 316 334 324 338 336 327 319 329 98 274 204 197 199 277 279 305 329 321 329 350 3 10 249 205 281 252 187 291 312 311 51 127 155 135 118 116 25 39 357 309 292 297 313 2 99 79 87 86 50 21 14 4 346 332 318 315 322 343 358 345 334 330 325 336 351 344 339 334
286 282 274 268 49 334 295 240 238 21 333 315 328 333 332 331 329 321 319 307 296 267 298 314 313 333 6 20 350 271 198 171 300 329 318 292 202 212 181 141 323 274 149 52 7 328 322 150 111 84 126 136 163 162 203 257 273 305 318 48 73 81 100 97 90 82 74 48 349 320 313 302 304 319 349 342 329 333 332 333 340 340 337 336 324
269 264 280 344 340 313 323 345 353 339 336 6 2 346 339 334 329 334 332 321 308 310 318 312 292 286 298 285 254 268 336 46 149 203 238 260 297 125 119 120 137 174 124 187 211 326 345 29 92 120 129 112 81 261 283 217 262 253 300 81 52 70 68 52 130 87 69 24 311 286 289 297 309 317 329 325 324 326 331 337 337 337 338 333 320
262 301 341 275 324 5 1 356 351 347 349 354 337 331 317 303 299 292 283 293 311 317 319 317 320 327 334 343 8 360 356 25 12 349 340 340 109 66 65 125 159 175 231 253 237 28 359 302 126 104 108 150 163 172 203 277 294 283 100 109 89 81 67 49 54 68 45 260 250 285 293 295 297 304 308 316 327 335 330 326 328 336 333 324 319
288 50 278 279 29 8 18 11 15 338 333 314 308 293 283 281 307 314 314 303 273 267 283 297 310 317 316 319 334 330 317 354 10 332 322 333 45 118 157 139 167 175 208 236 273 282 247 145 139 152 165 165 176 166 167 223 239 109 103 103 117 109 102 91 83 74 298 346 335 315 298 291 288 285 293 311 328 328 321 329 327 325 325 315 315
59 234 249 349 32 8 20 356 356 326 298 308 333 329 326 329 315 304 302 303 307 317 326 328 319 309 302 307 302 301 320 331 302 269 308 317 331 345 2 129 147 180 189 147 138 214 242 240 242 178 154 171 168 203 216 98 90 105 127 138 140 134 139 135 115 92 52 360 285 276 266 274 285 288 298 312 321 306 318 320 319 315 315 309 300